Location: Albany
(35.0170°S, 117.8920°E)
Time: 01:06:40
(UTC+08:00)

S-56A Canister/Altair - Pass Details

Date: 22 June 2021
Orbit: 632 x 2501 km, 38.9° (Epoch: 24 July)

Event Time Altitude Azimuth Distance (km) Brightness Sun altitude
Rises 22:28:15 0° 249° (WSW) 5,955 12.4 -65.0°
Reaches altitude 10° 22:33:02 10° 258° (WSW) 4,732 11.8 -65.9°
Enters shadow 22:36:18 18° 267° (W) 3,936 11.2 -66.5°
